Iron Mountain, MI

10:21 PM CDT on July 25, 2017 (GMT -0500)
Ford

Weather History for KIMT - September, 2013

Change the Weather History Date:

Monday, September 23, 2013

  Actual Average Record
Temperature  
Mean Temperature 46 °F -  
Max Temperature 63 °F 61 °F 87 °F (1937)
Min Temperature 30 °F 39 °F 22 °F (1974)
Degree Days  
Heating Degree Days 18    
Moisture  
Dew Point 36 °F    
Average Humidity 85    
Maximum Humidity 100    
Minimum Humidity 50    
Precipitation  
Precipitation 0.00 in - - ()
Sea Level Pressure  
Sea Level Pressure 30.12 in    
Wind  
Wind Speed 1 mph (SSE)    
Max Wind Speed 12 mph    
Max Gust Speed 16 mph    
Visibility 6 miles    
Events Fog    
Averages and records for this station are not official NWS values.
T = Trace of Precipitation, MM = Missing Value Source: NWS Daily Summary

Daily Weather History Graph

Daily Weather History Graph

Search for Another Location

Airport or City:

Trip Planner

Search our weather history database for the weather conditions in past years. The results will help you decide how hot, cold, wet, or windy it might be!

Date:

Astronomy

Sep. 23, 2013 Rise Set
Actual Time 6:40 AM CDT 6:47 PM CDT
Civil Twilight 6:11 AM CDT 7:17 PM CDT
Nautical Twilight 5:36 AM CDT 7:52 PM CDT
Astronomical Twilight 5:00 AM CDT 8:27 PM CDT
Moon 9:04 PM CDT (9/23) 11:14 AM CDT (9/23)
Length of Visible Light 13h 05m
Length of Day
12h 06m
Waning Gibbous, 81% of the Moon is Illuminated
Sep 23
Waning Gibbous
Sep 26
Last Quarter
Oct 4
New
Oct 11
First Quarter
Oct 18
Full

Hourly Weather History & Observations

Time (CDT) Temp. Windchill Dew Point Humidity Pressure Visibility Wind Dir Wind Speed Gust Speed Precip Events Conditions
12:39 AM 37.4 °F - 33.8 °F 87% 30.09 in 3.0 mi Calm Calm - N/A   Partly Cloudy
12:54 AM 36.0 °F - 35.1 °F 97% 30.12 in 10.0 mi Calm Calm - N/A   Partly Cloudy
1:21 AM 35.6 °F - 32.0 °F 87% 30.09 in 2.5 mi Calm Calm - N/A   Clear
1:28 AM 35.6 °F - 33.8 °F 93% 30.09 in 10.0 mi Calm Calm - N/A   Clear
1:54 AM 34.0 °F - 32.0 °F 92% 30.13 in 2.0 mi Calm Calm - N/A   Clear
2:08 AM 35.6 °F - 33.8 °F 93% 30.10 in 10.0 mi Calm Calm - N/A   Clear
2:54 AM 34.0 °F - 33.1 °F 96% 30.12 in 10.0 mi Calm Calm - N/A   Clear
3:27 AM 33.8 °F - 33.8 °F 100% 30.09 in 1.8 mi Calm Calm - N/A   Partly Cloudy
3:30 AM 32.0 °F - 30.2 °F 93% 30.09 in 0.8 mi Calm Calm - N/A   Mist
3:39 AM 33.8 °F - 32.0 °F 93% 30.10 in 0.2 mi Calm Calm - N/A Fog Fog
3:46 AM 33.8 °F - 30.2 °F 87% 30.10 in 1.0 mi Calm Calm - N/A   Mist
3:54 AM 32.0 °F - 30.0 °F 92% 30.13 in 0.5 mi Calm Calm - N/A Fog Fog
4:01 AM 33.8 °F - 30.2 °F 87% 30.10 in 0.2 mi Calm Calm - N/A Fog Fog
4:15 AM 33.8 °F - 32.0 °F 93% 30.10 in 0.5 mi Calm Calm - N/A Fog Fog
4:24 AM 32.0 °F - 30.2 °F 93% 30.11 in 2.0 mi Calm Calm - N/A   Mostly Cloudy
4:31 AM 32.0 °F - 30.2 °F 93% 30.11 in 9.0 mi Calm Calm - N/A   Mostly Cloudy
4:38 AM 33.8 °F - 32.0 °F 93% 30.11 in 10.0 mi Calm Calm - N/A   Scattered Clouds
4:54 AM 32.0 °F - 30.0 °F 92% 30.14 in 10.0 mi Calm Calm - N/A   Clear
5:07 AM 33.8 °F - 30.2 °F 87% 30.11 in 1.0 mi Calm Calm - N/A   Mist
5:12 AM 33.8 °F - 30.2 °F 87% 30.11 in 0.2 mi Calm Calm - N/A Fog Fog
5:35 AM 32.0 °F - 30.2 °F 93% 30.12 in 1.0 mi Calm Calm - N/A   Mist
5:49 AM 32.0 °F - 30.2 °F 93% 30.12 in 0.2 mi Calm Calm - N/A Fog Fog
5:50 AM 32.0 °F - 30.0 °F 92% 30.16 in 0.2 mi Calm Calm - N/A Fog Fog
6:12 AM 33.8 °F - 32.0 °F 93% 30.12 in 1.0 mi Calm Calm - N/A   Mist
6:17 AM 32.0 °F - 30.2 °F 93% 30.12 in 3.0 mi Calm Calm - N/A   Overcast
6:35 AM 30.2 °F - 30.2 °F 100% 30.12 in 1.8 mi Calm Calm - N/A   Mostly Cloudy
6:44 AM 30.2 °F - 30.2 °F 100% 30.12 in 0.2 mi Calm Calm - N/A Fog Light Freezing Fog
6:54 AM 32.0 °F - 30.9 °F 96% 30.16 in 0.2 mi Calm Calm - N/A Fog Fog
7:05 AM 32.0 °F - 32.0 °F 100% 30.13 in 0.2 mi Calm Calm - N/A Fog Fog
7:33 AM 33.8 °F - 32.0 °F 93% 30.13 in 1.0 mi Calm Calm - N/A   Mist
7:36 AM 33.8 °F - 32.0 °F 93% 30.13 in 4.0 mi Calm Calm - N/A   Partly Cloudy
7:54 AM 35.1 °F - 34.0 °F 96% 30.17 in 8.0 mi Calm Calm - N/A   Partly Cloudy
8:54 AM 44.1 °F - 42.1 °F 93% 30.17 in 10.0 mi Calm Calm - N/A   Clear
9:54 AM 53.1 °F - 43.0 °F 69% 30.17 in 10.0 mi SSE 11.5 mph - N/A   Clear
10:37 AM 55.4 °F - 42.8 °F 63% 30.15 in 10.0 mi South 9.2 mph - N/A   Mostly Cloudy
10:45 AM 55.4 °F - 42.8 °F 63% 30.15 in 10.0 mi South 8.1 mph - N/A   Scattered Clouds
10:54 AM 55.0 °F - 43.0 °F 64% 30.17 in 10.0 mi SSE 9.2 mph - N/A   Partly Cloudy
11:54 AM 57.9 °F - 44.1 °F 60% 30.16 in 10.0 mi SSE 8.1 mph - N/A   Clear
12:54 PM 61.0 °F - 45.0 °F 56% 30.14 in 10.0 mi South 8.1 mph 16.1 mph N/A   Clear
1:54 PM 62.1 °F - 45.0 °F 53% 30.12 in 10.0 mi South 6.9 mph - N/A   Clear
2:54 PM 63.0 °F - 45.0 °F 52% 30.10 in 10.0 mi East 5.8 mph - N/A   Clear
3:54 PM 63.0 °F - 44.1 °F 50% 30.10 in 10.0 mi ESE 9.2 mph - N/A   Clear
4:54 PM 62.1 °F - 45.0 °F 53% 30.10 in 10.0 mi SE 8.1 mph - N/A   Clear
5:54 PM 59.0 °F - 45.0 °F 60% 30.10 in 10.0 mi SSE 10.4 mph - N/A   Clear
6:54 PM 54.0 °F - 45.0 °F 72% 30.12 in 10.0 mi SSE 6.9 mph - N/A   Clear
7:54 PM 51.1 °F - 45.0 °F 80% 30.12 in 10.0 mi SE 5.8 mph - N/A   Clear
8:54 PM 48.0 °F - 44.1 °F 86% 30.12 in 10.0 mi SSE 3.5 mph - N/A   Clear
9:54 PM 46.0 °F 44.8 °F 44.1 °F 93% 30.11 in 10.0 mi SSE 3.5 mph - N/A   Clear
10:54 PM 45.0 °F 43.5 °F 43.0 °F 93% 30.11 in 9.0 mi SE 3.5 mph - N/A   Clear
11:54 PM 43.0 °F 41.3 °F 42.1 °F 97% 30.11 in 7.0 mi SSE 3.5 mph - N/A   Clear